[[{"header":{"parameterUnit":"m.s-1","parameterCategory":2,"la1":30.2991,"la2":30.254,"lo1":-89.0895,"lo2":-89.0444,"dy":0.0017,"dx":0.0017,"nx":28,"ny":28,"refTime":"2025-07-13T09:00:00:Z","depth":"0","parameterNumber":2,"parameterNumberName":"U-component_of_CURRENTS"},"data":[0,0,0,0,0,0,0,0,0,0,0,0,0,0,0,0,0,0,0,0,0,0,0,0,0,0,0,0,0,0,0,0,0,0,0,0,0,0,0,0,0,0,0,0,0,0,0,0,0,0,0,0,0,0,0,0,0,0,0.047,0.047,0,0.0476,0.0477,0.0477,0.0474,0.0474,0.0474,0.0474,0.05,0.0501,0.0502,0,0,0,0,0,0,0,0,0,0,0,0,0,0.043,0.0431,0.047,0.047,0.047,0.0476,0.0477,0.0477,0.0474,0.0474,0.0474,0.0474,0.05,0.0501,0.0502,0,0,0,0,0,0,0,0,0,0,0,0,0,0.0443,0.0431,0.047,0.047,0.047,0.0476,0.0477,0.0477,0.0474,0.0474,0.0474,0.0474,0.0499,0.0501,0.0502,0.0513,0,0,0.0505,0.0506,0,0,0,0,0,0,0,0,0.0443,0.0445,0.047,0.047,0.047,0.0474,0.0472,0.049,0.0474,0.0473,0.0474,0.0474,0.0493,0.0495,0.0496,0.0515,0.0516,0.0506,0.0506,0.0507,0.0507,0,0,0,0,0,0,0,0.0442,0.0444,0.0473,0.047,0.047,0.0461,0.0463,0.0475,0.0484,0.0473,0.0473,0.0474,0.0494,0.0495,0.0497,0.0516,0.0506,0.0507,0.0507,0.0508,0.0628,0.0631,0,0,0,0,0,0,0.0443,0.0444,0.0472,0.0473,0.0456,0.0462,0.0464,0.0473,0.0484,0.0485,0.0474,0.0473,0.0493,0.0496,0.0498,0.0603,0.0507,0.0508,0.0509,0.0626,0.0629,0.0632,0,0,0,0,0,0,0.0442,0.0446,0.0472,0.0458,0.046,0.0463,0.0473,0.0473,0.0485,0.0484,0.0486,0.0486,0.0493,0.0496,0.0522,0.06,0.0509,0.051,0.0623,0.0627,0.063,0.0755,0,0,0,0,0,0,0.0441,0.0446,0.0463,0.0458,0.0461,0.0494,0.0474,0.0474,0.0485,0.0485,0.0496,0.0497,0.0493,0.052,0.0523,0.06,0.0511,0.062,0.0625,0.0629,0.0748,0.0762,0.0775,0,0,0,0,0,0.044,0.0475,0.0464,0.0468,0.0483,0.0496,0.0497,0.0497,0.0486,0.0504,0.0505,0.0497,0.0553,0.0522,0.0525,0.0605,0.0618,0.0623,0.0629,0.0742,0.076,0.0775,0,0,0,0,0,0,0.0479,0.0477,0.0466,0.0502,0.0502,0.0496,0.0523,0.0505,0.0519,0.0525,0.0512,0.0515,0.057,0.0562,0.0529,0.0653,0.0591,0.0598,0.0676,0.0693,0.0707,0.0826,0.0512,0,0,0,0,0,0.0491,0.0517,0.0503,0.0537,0.054,0.0528,0.0536,0.053,0.0534,0.054,0.0541,0.0559,0.0595,0.062,0.0634,0.0695,0.0788,0.0753,0.0767,0.0778,0.0878,0.1072,0.1115,0.065,0.065,0.065,0,0,0.0522,0.0522,0.0541,0.0547,0.0552,0.0588,0.0534,0.0558,0.0602,0.0542,0.0606,0.0596,0.0615,0.0686,0.0714,0.0693,0.0948,0.0785,0.0795,0.0891,0.1083,0.1129,0.117,0.0654,0.0653,0.0652,0,0,0.0608,0.0592,0.0647,0.0647,0.0652,0.0642,0.065,0.0643,0.0658,0.0691,0.0681,0.0736,0.0744,0.0817,0.0846,0.095,0.1002,0.0925,0.1113,0.1297,0.134,0.1378,0.1519,0.1569,0.0948,0.0948,0.0948,0,0.0651,0.0711,0.0666,0.0713,0.074,0.0674,0.0743,0.0745,0.0749,0.0809,0.073,0.0856,0.0839,0.1018,0.1048,0.0995,0.1089,0.1042,0.1324,0.1363,0.1401,0.1536,0.159,0.0955,0.0954,0.0953,0.0953,0,0.0775,0.0819,0.0854,0.0894,0.0906,0.0952,0.0937,0.0966,0.0951,0.0975,0.1104,0.109,0.1194,0.1176,0.1142,0.1402,0.1376,0.1305,0.1294,0.1457,0.1586,0.164,0.0964,0.0962,0.096,0.0958,0,0,0.0912,0.0939,0.096,0.1005,0.1008,0.1039,0.1115,0.1202,0.1298,0.1299,0.1464,0.1519,0.1526,0.1567,0.1537,0.1693,0.198,0.1628,0.1634,0.1793,0.2392,0.2325,0.2376,0.196,0.1971,0.198,0.2363,0,0.1045,0.1162,0.1143,0.1268,0.1329,0.1298,0.1381,0.1442,0.147,0.1592,0.1652,0.1757,0.1667,0.1712,0.1872,0.1932,0.2137,0.1884,0.2194,0.2205,0.2147,0.2443,0.2376,0.271,0.2416,0.2425,0.2431,0,0.1203,0.1256,0.1394,0.147,0.1499,0.1555,0.1693,0.1751,0.1888,0.1918,0.2061,0.2066,0.2289,0.2153,0.2495,0.2335,0.2434,0.2482,0.2495,0.2457,0.2244,0.2506,0.282,0.2722,0.2515,0.2508,0.2502,0,0.1351,0.1447,0.1564,0.1587,0.1653,0.1733,0.1773,0.1884,0.1965,0.2139,0.2223,0.2443,0.2529,0.2736,0.2787,0.2689,0.3139,0.2995,0.3065,0.3056,0.3084,0.3061,0.338,0.3356,0.3355,0.3354,0.3353,0,0.1512,0.1611,0.1638,0.1707,0.1847,0.1855,0.202,0.2079,0.2212,0.2334,0.2408,0.2543,0.2686,0.2882,0.2966,0.3194,0.3303,0.3233,0.3215,0.3111,0.3087,0.3061,0.304,0.3368,0.3365,0.3362,0.336,0,0.1658,0.1683,0.1811,0.1894,0.1917,0.2016,0.2104,0.221,0.2322,0.2485,0.2549,0.2705,0.2949,0.3095,0.3386,0.3398,0.3561,0.3666,0.3503,0.3462,0.3391,0.3378,0.3585,0.3546,0.3874,0.3875,0.3877,0,0.1739,0.1825,0.1922,0.1965,0.1999,0.2108,0.2168,0.2261,0.2342,0.256,0.2644,0.2911,0.3041,0.3441,0.3581,0.3834,0.3693,0.387,0.3694,0.3519,0.3493,0.3231,0.3162,0.3768,0.3768,0.3769,0.3769,0,0.187,0.1907,0.1972,0.2056,0.2121,0.2196,0.2275,0.235,0.2454,0.2588,0.2745,0.2876,0.3233,0.3413,0.3702,0.3837,0.3716,0.388,0.3802,0.3599,0.3252,0.3152,0.3323,0.3771,0.3771,0.3771,0.3771,0.3771,0.1923,0.1974,0.2028,0.2108,0.2172,0.2221,0.2262,0.2334,0.2442,0.257,0.2729,0.2882,0.318,0.3577,0.3698,0.3845,0.3784,0.378,0.3832,0.3614,0.345,0.3605,0.3929,0.3929,0.393,0.393,0.3931,0,0.1917,0.1959,0.2052,0.2107,0.2152,0.2197,0.2272,0.2287,0.234,0.2505,0.2622,0.2895,0.3142,0.3411,0.3721,0.3748,0.3581,0.3732,0.3402,0.3381,0.3661,0.352,0.3643,0.3643,0.3643,0.3644,0.3644,0.3644,0.1896,0.194,0.1985,0.2035,0.2077,0.2094,0.2112,0.2152,0.2247,0.2371,0.2495,0.2639,0.2998,0.3455,0.3638,0.3636,0.3463,0.3371,0.3363,0.3583,0.3587,0.3591,0.345,0.3557,0.3557,0.2883,0.2879,0.2877]},{"header":{"parameterUnit":"m.s-1","parameterCategory":2,"la1":30.2991,"la2":30.254,"lo1":-89.0895,"lo2":-89.0444,"dy":0.0017,"dx":0.0017,"nx":28,"ny":28,"refTime":"2025-07-13T09:00:00:Z","depth":"0","parameterNumber":3,"parameterNumberName":"V-component_of_CURRENTS"},"data":[0,0,0,0,0,0,0,0,0,0,0,0,0,0,0,0,0,0,0,0,0,0,0,0,0,0,0,0,0,0,0,0,0,0,0,0,0,0,0,0,0,0,0,0,0,0,0,0,0,0,0,0,0,0,0,0,0,0,0.0659,0.0658,0,0.0625,0.0625,0.0625,0.061,0.061,0.061,0.061,0.0563,0.0562,0.056,0,0,0,0,0,0,0,0,0,0,0,0,0,0.07,0.07,0.0659,0.0658,0.0658,0.0625,0.0625,0.0625,0.0611,0.061,0.061,0.061,0.0563,0.0562,0.056,0,0,0,0,0,0,0,0,0,0,0,0,0,0.0677,0.07,0.0659,0.0646,0.0644,0.0625,0.0625,0.0625,0.0611,0.061,0.061,0.061,0.0564,0.0562,0.056,0.055,0,0,0.0554,0.0554,0,0,0,0,0,0,0,0,0.0679,0.0676,0.0648,0.0647,0.0645,0.0621,0.0622,0.0598,0.0611,0.0625,0.061,0.061,0.058,0.0577,0.0573,0.0548,0.0546,0.0554,0.0553,0.0552,0.0552,0,0,0,0,0,0,0,0.068,0.0677,0.0647,0.0648,0.0646,0.0638,0.0635,0.0618,0.0604,0.0623,0.0622,0.0616,0.0579,0.0575,0.0571,0.0545,0.0554,0.0553,0.0552,0.0551,0.0505,0.0505,0,0,0,0,0,0,0.0683,0.0679,0.0648,0.0646,0.0661,0.0638,0.0634,0.063,0.0604,0.06,0.0617,0.0616,0.0578,0.0574,0.057,0.0602,0.0552,0.0551,0.055,0.0505,0.0505,0.0505,0,0,0,0,0,0,0.0684,0.068,0.0649,0.066,0.0656,0.0637,0.0632,0.0629,0.0618,0.0599,0.0595,0.0607,0.0577,0.0572,0.054,0.0598,0.055,0.0548,0.0505,0.0505,0.0505,0.0638,0,0,0,0,0,0,0.0685,0.0681,0.068,0.0661,0.0655,0.0633,0.0632,0.0628,0.0614,0.0613,0.059,0.0586,0.0577,0.0543,0.0538,0.0595,0.0547,0.0505,0.0505,0.0505,0.0633,0.0642,0.0649,0,0,0,0,0,0.0687,0.0688,0.0681,0.0677,0.0655,0.0633,0.063,0.0617,0.0614,0.0607,0.0585,0.0586,0.0539,0.0541,0.0536,0.0593,0.0505,0.0505,0.0505,0.063,0.064,0.0649,0,0,0,0,0,0,0.0709,0.0686,0.0678,0.0672,0.0651,0.063,0.0627,0.0613,0.0592,0.0594,0.0573,0.0567,0.0563,0.0538,0.054,0.0572,0.0527,0.0526,0.0624,0.0634,0.0642,0.0735,0.0545,0,0,0,0,0,0.0713,0.0708,0.068,0.0677,0.0667,0.0645,0.0635,0.0625,0.0603,0.0594,0.0579,0.0563,0.0559,0.0562,0.0538,0.0552,0.0557,0.0583,0.0592,0.0599,0.0667,0.0705,0.0725,0.0504,0.0504,0.0504,0,0,0.0726,0.0709,0.0709,0.0682,0.0668,0.0677,0.064,0.0627,0.0653,0.0592,0.0614,0.0578,0.0558,0.0577,0.0577,0.0569,0.0649,0.0599,0.0606,0.0671,0.0707,0.073,0.075,0.0504,0.0504,0.0504,0,0,0.0755,0.0729,0.0739,0.0725,0.0701,0.0692,0.0687,0.0662,0.0667,0.066,0.0641,0.0645,0.0609,0.0645,0.0651,0.0684,0.0675,0.0658,0.0804,0.0838,0.0859,0.0878,0.0865,0.0881,0.0682,0.0683,0.0683,0,0.0776,0.0785,0.0738,0.0746,0.0758,0.0704,0.0735,0.073,0.0703,0.0747,0.0677,0.0705,0.0666,0.0766,0.0777,0.0718,0.0711,0.0777,0.0858,0.0876,0.0893,0.0875,0.0892,0.0689,0.0688,0.0687,0.0687,0,0.0816,0.0826,0.083,0.0836,0.0835,0.0844,0.0835,0.085,0.0838,0.0857,0.0913,0.0858,0.09,0.0874,0.0839,0.0958,0.0901,0.0851,0.0853,0.0925,0.0898,0.0914,0.0698,0.0696,0.0694,0.0692,0,0,0.0876,0.0865,0.0871,0.09,0.0888,0.09,0.0955,0.1018,0.1096,0.1066,0.1178,0.1165,0.1156,0.1162,0.1119,0.1157,0.1228,0.1073,0.1072,0.1096,0.128,0.1194,0.1201,0.1195,0.1199,0.1203,0.1197,0,0.0935,0.0978,0.0961,0.103,0.1062,0.1057,0.1125,0.1178,0.1201,0.1283,0.1294,0.1343,0.1259,0.1274,0.1311,0.1242,0.1282,0.1233,0.1178,0.1177,0.1123,0.1222,0.1192,0.1184,0.1212,0.1214,0.1216,0,0.1,0.1023,0.1096,0.1162,0.1179,0.1218,0.1344,0.1391,0.1502,0.1523,0.1604,0.1585,0.166,0.154,0.1551,0.152,0.1441,0.1377,0.1374,0.1282,0.1123,0.1121,0.121,0.0965,0.1239,0.1237,0.1236,0,0.109,0.1131,0.12,0.1215,0.1274,0.1339,0.1382,0.1489,0.157,0.1684,0.1754,0.1816,0.1822,0.1789,0.1656,0.1612,0.1632,0.1537,0.1399,0.1387,0.1354,0.1333,0.1246,0.1582,0.1582,0.1582,0.1582,0,0.1177,0.1234,0.1246,0.129,0.1399,0.1418,0.1558,0.1617,0.1738,0.1868,0.1885,0.1978,0.1886,0.1873,0.1752,0.1632,0.1708,0.148,0.1416,0.1385,0.1369,0.1143,0.1063,0.1581,0.1581,0.1581,0.1582,0,0.1267,0.1272,0.1351,0.1416,0.1441,0.1518,0.1628,0.1729,0.1836,0.2002,0.2048,0.2108,0.2089,0.1987,0.1887,0.1731,0.152,0.1563,0.1508,0.1441,0.1059,0.0989,0.0954,0.0887,0.1424,0.1423,0.1421,0,0.1317,0.1366,0.1429,0.1463,0.1488,0.1587,0.1662,0.1767,0.1873,0.2085,0.2172,0.2218,0.2268,0.2092,0.1854,0.1664,0.1491,0.1445,0.1372,0.109,0.0965,0.0919,0.0863,0.1347,0.1346,0.1344,0.1343,0,0.1411,0.1424,0.147,0.154,0.1603,0.1689,0.1801,0.1899,0.2052,0.2196,0.2367,0.2435,0.2309,0.2098,0.1808,0.1652,0.1301,0.1404,0.116,0.0975,0.0883,0.0767,0.1248,0.1329,0.1331,0.1332,0.1333,0.1333,0.146,0.1494,0.1539,0.1604,0.1677,0.1779,0.1865,0.1988,0.2159,0.2373,0.2456,0.2564,0.2294,0.1916,0.1656,0.1113,0.1207,0.0912,0.087,0.086,0.0764,0.1195,0.1166,0.1166,0.1166,0.1167,0.1167,0,0.149,0.152,0.1594,0.1669,0.1751,0.1788,0.1949,0.2038,0.2207,0.2397,0.2546,0.2511,0.2063,0.1655,0.0984,0.0615,0.0536,0.0417,0.0345,0.0328,0.0739,0.0695,0.0506,0.0506,0.0506,0.0506,0.0507,0.0507,0.1502,0.155,0.1583,0.1707,0.1769,0.1889,0.1973,0.2108,0.2259,0.2451,0.2547,0.2679,0.24,0.1218,0.0352,0.014,-0.0132,-0.0142,-0.024,-0.0016,0.0026,0.0065,-0.0001,-0.0333,-0.0334,-0.0639,-0.0643,-0.0645]}],[{"header":{"parameterUnit":"m.s-1","parameterCategory":2,"la1":30.2991,"la2":30.254,"lo1":-89.0895,"lo2":-89.0444,"dy":0.0017,"dx":0.0017,"nx":28,"ny":28,"refTime":"2025-07-13T09:00:00:Z","depth":"2","parameterNumber":2,"parameterNumberName":"U-component_of_CURRENTS"},"data":[0,0,0,0,0,0,0,0,0,0,0,0,0,0,0,0,0,0,0,0,0,0,0,0,0,0,0,0,0,0,0,0,0,0,0,0,0,0,0,0,0,0,0,0,0,0,0,0,0,0,0,0,0,0,0,0,0,0,0.0223,0.0224,0,0.0206,0.0205,0.0204,0.0165,0.0165,0.0165,0.0164,0.0132,0.0132,0.0131,0,0,0,0,0,0,0,0,0,0,0,0,0,0.0172,0.0173,0.0223,0.0224,0.0224,0.0206,0.0205,0.0204,0.0165,0.0165,0.0165,0.0164,0.0132,0.0132,0.0131,0,0,0,0,0,0,0,0,0,0,0,0,0,0.0174,0.0173,0.0223,0.0206,0.0205,0.0206,0.0205,0.0204,0.0165,0.0165,0.0164,0.0164,0.0132,0.0132,0.0131,0.0136,0,0,0.0128,0.0128,0,0,0,0,0,0,0,0,0.0174,0.0175,0.0208,0.0207,0.0206,0.0192,0.0175,0.0182,0.0166,0.0175,0.0164,0.0164,0.0154,0.0152,0.0142,0.0135,0.0133,0.0128,0.0128,0.0127,0.0127,0,0,0,0,0,0,0,0.0174,0.0175,0.0211,0.0209,0.0207,0.0182,0.0181,0.0176,0.0164,0.0174,0.0173,0.0179,0.0153,0.0143,0.0142,0.0133,0.0128,0.0128,0.0127,0.0127,0.017,0.0172,0,0,0,0,0,0,0.019,0.0176,0.0212,0.0211,0.0194,0.0184,0.0183,0.0193,0.0164,0.0161,0.0179,0.0177,0.0145,0.0143,0.014,0.0181,0.0127,0.0127,0.0126,0.0168,0.017,0.0172,0,0,0,0,0,0,0.0189,0.0193,0.0213,0.0196,0.0198,0.0186,0.0196,0.0193,0.0186,0.0169,0.0164,0.0177,0.0144,0.0141,0.0143,0.0178,0.0126,0.0126,0.0166,0.0169,0.0171,0.0239,0,0,0,0,0,0,0.0187,0.0193,0.0201,0.0198,0.02,0.022,0.0197,0.0193,0.0193,0.0189,0.0166,0.0162,0.0144,0.0144,0.0142,0.0176,0.0125,0.0164,0.0168,0.017,0.0234,0.0243,0.0251,0,0,0,0,0,0.0185,0.0198,0.0202,0.0206,0.0213,0.0222,0.022,0.0205,0.0193,0.0195,0.0181,0.0163,0.0163,0.0145,0.0142,0.0176,0.0163,0.0167,0.017,0.0231,0.0241,0.025,0,0,0,0,0,0,0.0174,0.0196,0.0199,0.0217,0.0225,0.0217,0.0217,0.0211,0.02,0.0196,0.0173,0.0169,0.0189,0.0173,0.0153,0.02,0.0164,0.0168,0.0212,0.0221,0.0229,0.0219,0.0124,0,0,0,0,0,0.0181,0.0196,0.0212,0.0224,0.0232,0.0227,0.0227,0.0222,0.0216,0.021,0.02,0.0195,0.0202,0.0202,0.0202,0.0219,0.0208,0.0243,0.0251,0.0258,0.025,0.0247,0.0254,0.0184,0.0184,0.0184,0,0,0.0177,0.0193,0.02,0.0223,0.0225,0.0242,0.0224,0.0231,0.0246,0.021,0.0222,0.0221,0.0214,0.0237,0.0245,0.0226,0.0284,0.0263,0.0269,0.0256,0.0252,0.0258,0.0264,0.0187,0.0186,0.0186,0,0,0.0183,0.0197,0.0214,0.0228,0.0246,0.025,0.0257,0.0263,0.0265,0.0284,0.0268,0.0282,0.029,0.0291,0.0294,0.0345,0.0327,0.0358,0.0388,0.0386,0.0391,0.0396,0.0435,0.0442,0.0361,0.0361,0.0361,0,0.0175,0.0206,0.0218,0.0241,0.0253,0.0259,0.0278,0.0288,0.0293,0.03,0.0299,0.0317,0.0317,0.0339,0.0365,0.0363,0.0368,0.035,0.0395,0.0399,0.0402,0.0441,0.0447,0.0364,0.0364,0.0364,0.0363,0,0.0202,0.0223,0.0234,0.0269,0.0282,0.0299,0.0323,0.0338,0.035,0.0359,0.0387,0.0388,0.0393,0.0414,0.0407,0.0438,0.044,0.0406,0.0367,0.0413,0.0452,0.0458,0.037,0.0368,0.0367,0.0366,0,0,0.0185,0.0242,0.0244,0.0263,0.0299,0.0311,0.0345,0.0374,0.039,0.0415,0.0435,0.0468,0.0462,0.0465,0.0463,0.0471,0.0524,0.0454,0.0452,0.0487,0.0553,0.0615,0.0627,0.0493,0.0493,0.0493,0.0587,0,0.0199,0.0247,0.0271,0.0306,0.033,0.0349,0.0377,0.0402,0.0427,0.0451,0.0467,0.049,0.0485,0.0496,0.0504,0.0512,0.0535,0.0504,0.0507,0.0508,0.0551,0.0634,0.0585,0.0669,0.0593,0.0594,0.0594,0,0.0215,0.0247,0.0287,0.0327,0.0338,0.0359,0.0395,0.0423,0.046,0.0479,0.0499,0.051,0.0545,0.0525,0.0563,0.0542,0.0555,0.0562,0.0565,0.0594,0.0579,0.0602,0.0681,0.0603,0.0603,0.0602,0.0601,0,0.0197,0.0252,0.0284,0.0299,0.035,0.0365,0.0391,0.0427,0.0456,0.0495,0.0525,0.0544,0.0578,0.0577,0.0621,0.0587,0.0665,0.0613,0.0685,0.0691,0.0635,0.0635,0.0633,0.0633,0.0632,0.0632,0.0632,0,0.0199,0.0222,0.0279,0.0294,0.0327,0.036,0.0393,0.0421,0.0466,0.0509,0.0535,0.0575,0.059,0.0641,0.0643,0.0714,0.0687,0.0714,0.072,0.0665,0.0667,0.0578,0.057,0.0636,0.0635,0.0634,0.0634,0,0.017,0.0211,0.0244,0.0299,0.0319,0.0339,0.04,0.0424,0.0475,0.0533,0.0553,0.062,0.0694,0.0731,0.0764,0.0773,0.0807,0.0832,0.0801,0.0801,0.0827,0.0822,0.0914,0.0917,0.092,0.0922,0.0924,0,0.0159,0.0176,0.0237,0.0261,0.0286,0.0329,0.0357,0.0416,0.0448,0.0562,0.0586,0.0693,0.0763,0.0871,0.0901,0.0954,0.0908,0.0942,0.0861,0.086,0.0856,0.0847,0.0839,0.0829,0.083,0.0831,0.0831,0,0.0131,0.0151,0.018,0.0233,0.0267,0.0312,0.0362,0.039,0.047,0.0536,0.0637,0.0711,0.0852,0.0912,0.1012,0.1005,0.0928,0.0961,0.0959,0.0773,0.0789,0.0782,0.0775,0.0838,0.0837,0.0837,0.0836,0.0836,0.0099,0.0112,0.0155,0.0201,0.0249,0.0292,0.0315,0.0376,0.044,0.0559,0.0647,0.0765,0.0837,0.0966,0.0992,0.1013,0.1028,0.0977,0.097,0.0963,0.0945,0.0965,0.1045,0.1046,0.1046,0.1046,0.1047,0,0.0062,0.0092,0.0128,0.0182,0.0222,0.0267,0.0319,0.0341,0.0408,0.0556,0.0674,0.0721,0.0833,0.0901,0.0966,0.1008,0.0931,0.0966,0.0856,0.0853,0.0849,0.0818,0.0888,0.0887,0.0887,0.0886,0,0,0.0044,0.0066,0.0093,0.0147,0.0197,0.0242,0.0269,0.0315,0.0399,0.0509,0.0617,0.0777,0.0862,0.0846,0.0882,0.0906,0.0849,0.087,0.0999,0.0864,0.0858,0.0867,0.0819,0,0,0,0,0]},{"header":{"parameterUnit":"m.s-1","parameterCategory":2,"la1":30.2991,"la2":30.254,"lo1":-89.0895,"lo2":-89.0444,"dy":0.0017,"dx":0.0017,"nx":28,"ny":28,"refTime":"2025-07-13T09:00:00:Z","depth":"2","parameterNumber":3,"parameterNumberName":"V-component_of_CURRENTS"},"data":[0,0,0,0,0,0,0,0,0,0,0,0,0,0,0,0,0,0,0,0,0,0,0,0,0,0,0,0,0,0,0,0,0,0,0,0,0,0,0,0,0,0,0,0,0,0,0,0,0,0,0,0,0,0,0,0,0,0,-0.086,-0.086,0,-0.0794,-0.0793,-0.0792,-0.0743,-0.0743,-0.0742,-0.0742,-0.0615,-0.0612,-0.0609,0,0,0,0,0,0,0,0,0,0,0,0,0,-0.0908,-0.0908,-0.086,-0.086,-0.0859,-0.0794,-0.0793,-0.0792,-0.0743,-0.0743,-0.0742,-0.0742,-0.0616,-0.0613,-0.0609,0,0,0,0,0,0,0,0,0,0,0,0,0,-0.0868,-0.0908,-0.086,-0.0827,-0.0824,-0.0794,-0.0793,-0.0791,-0.0743,-0.0743,-0.0742,-0.0742,-0.0618,-0.0613,-0.0609,-0.0591,0,0,-0.0595,-0.0593,0,0,0,0,0,0,0,0,-0.0871,-0.0867,-0.0833,-0.083,-0.0825,-0.0777,-0.0763,-0.0722,-0.0743,-0.0773,-0.0742,-0.0742,-0.0665,-0.0656,-0.0645,-0.0585,-0.058,-0.0594,-0.0591,-0.0589,-0.0588,0,0,0,0,0,0,0,-0.0874,-0.0869,-0.0833,-0.0832,-0.0828,-0.0803,-0.0797,-0.0755,-0.0721,-0.0771,-0.0767,-0.0761,-0.0662,-0.0649,-0.0641,-0.0578,-0.0594,-0.059,-0.0587,-0.0586,-0.0422,-0.042,0,0,0,0,0,0,-0.0886,-0.0872,-0.0835,-0.0831,-0.0848,-0.0803,-0.0796,-0.0792,-0.0723,-0.0712,-0.0761,-0.0759,-0.0657,-0.0647,-0.0636,-0.0575,-0.059,-0.0585,-0.0583,-0.0423,-0.0421,-0.042,0,0,0,0,0,0,-0.0887,-0.0883,-0.0838,-0.085,-0.0843,-0.0803,-0.0799,-0.0791,-0.0768,-0.0716,-0.0705,-0.0745,-0.0656,-0.0643,-0.0584,-0.0571,-0.0583,-0.0579,-0.0425,-0.0423,-0.042,-0.0474,0,0,0,0,0,0,-0.0889,-0.0884,-0.088,-0.0851,-0.0843,-0.0813,-0.0799,-0.079,-0.0766,-0.0762,-0.0699,-0.0687,-0.0655,-0.0592,-0.058,-0.0565,-0.0575,-0.0427,-0.0424,-0.0421,-0.0474,-0.0474,-0.0473,0,0,0,0,0,-0.0891,-0.0882,-0.088,-0.0875,-0.084,-0.0812,-0.0805,-0.0774,-0.0766,-0.0752,-0.0707,-0.0688,-0.0563,-0.0587,-0.0574,-0.0557,-0.0429,-0.0425,-0.0421,-0.0475,-0.0474,-0.0473,0,0,0,0,0,0,-0.089,-0.0875,-0.0873,-0.0857,-0.0836,-0.0804,-0.0784,-0.0772,-0.0728,-0.0718,-0.0675,-0.0659,-0.0602,-0.0565,-0.0592,-0.0495,-0.049,-0.0483,-0.0535,-0.0534,-0.0533,-0.058,-0.0572,0,0,0,0,0,-0.0894,-0.0885,-0.0867,-0.0852,-0.0843,-0.0816,-0.0799,-0.0782,-0.0744,-0.0725,-0.068,-0.0625,-0.0578,-0.0546,-0.0497,-0.0448,-0.0462,-0.0423,-0.0422,-0.0423,-0.0448,-0.0473,-0.048,-0.0408,-0.0408,-0.0408,0,0,-0.0886,-0.0879,-0.0871,-0.0852,-0.0832,-0.0815,-0.0803,-0.0775,-0.076,-0.0716,-0.0668,-0.0624,-0.0564,-0.051,-0.048,-0.0477,-0.0442,-0.0418,-0.0419,-0.0445,-0.0471,-0.0479,-0.0486,-0.0405,-0.0406,-0.0406,0,0,-0.0868,-0.0864,-0.0851,-0.0839,-0.0815,-0.0803,-0.0797,-0.0762,-0.0744,-0.0698,-0.0663,-0.0625,-0.0533,-0.0508,-0.048,-0.0446,-0.0443,-0.0403,-0.0439,-0.0463,-0.0471,-0.0479,-0.0491,-0.0499,-0.04,-0.0401,-0.0401,0,-0.086,-0.0849,-0.084,-0.0827,-0.0818,-0.0801,-0.0786,-0.0767,-0.0716,-0.0708,-0.0681,-0.0588,-0.0543,-0.0508,-0.0492,-0.0452,-0.0458,-0.0454,-0.047,-0.0477,-0.0484,-0.0495,-0.0504,-0.0403,-0.0402,-0.0402,-0.0402,0,-0.0835,-0.0828,-0.0816,-0.0804,-0.0791,-0.0775,-0.0759,-0.074,-0.0718,-0.0703,-0.0661,-0.0608,-0.0563,-0.0529,-0.0501,-0.0507,-0.0493,-0.0476,-0.049,-0.0496,-0.0505,-0.0513,-0.0406,-0.0405,-0.0404,-0.0404,0,0,-0.0822,-0.0804,-0.0803,-0.0799,-0.0783,-0.0771,-0.0756,-0.0744,-0.074,-0.0697,-0.0692,-0.0628,-0.0619,-0.0588,-0.0548,-0.0564,-0.061,-0.0542,-0.0542,-0.0587,-0.0658,-0.0645,-0.0652,-0.0599,-0.0601,-0.0602,-0.0642,0,-0.0809,-0.079,-0.0786,-0.077,-0.0762,-0.0757,-0.0748,-0.0738,-0.072,-0.0708,-0.0689,-0.0651,-0.0634,-0.0604,-0.063,-0.0604,-0.0634,-0.0601,-0.0617,-0.0617,-0.0634,-0.0663,-0.06,-0.063,-0.0649,-0.0651,-0.0652,0,-0.0795,-0.0788,-0.0773,-0.0769,-0.0765,-0.0753,-0.0753,-0.0739,-0.0735,-0.0721,-0.0716,-0.0692,-0.0698,-0.0679,-0.0708,-0.0684,-0.0691,-0.0683,-0.0684,-0.067,-0.0621,-0.0625,-0.0644,-0.0665,-0.0664,-0.0663,-0.0662,0,-0.0803,-0.0785,-0.0777,-0.0774,-0.0761,-0.0756,-0.0746,-0.0741,-0.0724,-0.0727,-0.0707,-0.0732,-0.0707,-0.0748,-0.0733,-0.0725,-0.0767,-0.075,-0.0754,-0.0751,-0.0702,-0.0693,-0.0806,-0.0805,-0.0805,-0.0805,-0.0805,0,-0.0806,-0.08,-0.0777,-0.0774,-0.0761,-0.0755,-0.0739,-0.0736,-0.0722,-0.0689,-0.0711,-0.0684,-0.0723,-0.0735,-0.0758,-0.078,-0.0793,-0.0786,-0.0774,-0.0713,-0.0705,-0.0735,-0.0726,-0.0807,-0.0806,-0.0806,-0.0806,0,-0.0815,-0.0805,-0.0789,-0.0771,-0.0762,-0.0749,-0.0711,-0.0696,-0.0688,-0.0646,-0.0638,-0.0649,-0.0665,-0.0705,-0.0747,-0.0782,-0.0816,-0.082,-0.074,-0.072,-0.0783,-0.0776,-0.0855,-0.0855,-0.0855,-0.0855,-0.0855,0,-0.0816,-0.0808,-0.0779,-0.0759,-0.0744,-0.0718,-0.0694,-0.0678,-0.0648,-0.0604,-0.058,-0.0586,-0.0568,-0.0649,-0.0704,-0.0769,-0.0798,-0.078,-0.0771,-0.0814,-0.0795,-0.0787,-0.078,-0.0713,-0.0712,-0.0711,-0.071,0,-0.0805,-0.0792,-0.0775,-0.0736,-0.0705,-0.0669,-0.0627,-0.0596,-0.0557,-0.051,-0.0446,-0.0429,-0.0488,-0.0527,-0.0636,-0.0681,-0.0773,-0.0766,-0.0838,-0.0711,-0.0684,-0.0663,-0.066,-0.0703,-0.0703,-0.0704,-0.0704,-0.0705,-0.0781,-0.0763,-0.0732,-0.0695,-0.0661,-0.0605,-0.0548,-0.0491,-0.0417,-0.0302,-0.0328,-0.0254,-0.0377,-0.0457,-0.0561,-0.0669,-0.0697,-0.0738,-0.0739,-0.0742,-0.0719,-0.0695,-0.071,-0.0711,-0.0711,-0.0712,-0.0713,0,-0.0732,-0.0714,-0.0684,-0.0629,-0.0581,-0.0568,-0.0488,-0.0414,-0.0289,-0.0194,-0.0112,-0.0153,-0.0217,-0.0346,-0.0473,-0.06,-0.0597,-0.0648,-0.0613,-0.062,-0.0627,-0.0597,-0.0556,-0.0556,-0.0556,-0.0556,0,0,-0.07,-0.0661,-0.0649,-0.0558,-0.0514,-0.0417,-0.0353,-0.0245,-0.0162,-0.0031,0.005,0.0055,-0.0137,-0.0207,-0.038,-0.0452,-0.0508,-0.0468,-0.058,-0.0527,-0.0531,-0.0666,-0.0627,0,0,0,0,0]}],[{"header":{"parameterUnit":"m.s-1","parameterCategory":2,"la1":30.2991,"la2":30.254,"lo1":-89.0895,"lo2":-89.0444,"dy":0.0017,"dx":0.0017,"nx":28,"ny":28,"refTime":"2025-07-13T09:00:00:Z","depth":"4","parameterNumber":2,"parameterNumberName":"U-component_of_CURRENTS"},"data":[0,0,0,0,0,0,0,0,0,0,0,0,0,0,0,0,0,0,0,0,0,0,0,0,0,0,0,0,0,0,0,0,0,0,0,0,0,0,0,0,0,0,0,0,0,0,0,0,0,0,0,0,0,0,0,0,0,0,0.0123,0.0123,0,0.0144,0.0145,0.0145,0.0166,0.0166,0.0166,0.0166,0.0188,0.0189,0.0189,0,0,0,0,0,0,0,0,0,0,0,0,0,0.0112,0.0112,0.0122,0.0123,0.0123,0.0144,0.0145,0.0145,0.0166,0.0166,0.0166,0.0166,0.0188,0.0189,0.0189,0,0,0,0,0,0,0,0,0,0,0,0,0,0.0123,0.0112,0.0122,0.0136,0.0137,0.0144,0.0145,0.0145,0.0166,0.0166,0.0166,0.0167,0.0188,0.0189,0.0189,0.0185,0,0,0.0191,0.0191,0,0,0,0,0,0,0,0,0.0123,0.0124,0.0133,0.0135,0.0136,0.0152,0.0149,0.0158,0.0165,0.0155,0.0166,0.0167,0.0176,0.0177,0.0181,0.0186,0.0187,0.0191,0.0191,0.0191,0.0191,0,0,0,0,0,0,0,0.0122,0.0123,0.0131,0.0134,0.0135,0.0145,0.0147,0.0151,0.0163,0.0156,0.0157,0.0159,0.0177,0.0181,0.0182,0.0188,0.0191,0.0191,0.0192,0.0192,0.0214,0.0215,0,0,0,0,0,0,0.0117,0.0122,0.0131,0.0132,0.013,0.0145,0.0147,0.0147,0.0163,0.0166,0.0159,0.016,0.0179,0.0181,0.0183,0.0199,0.0191,0.0192,0.0192,0.0214,0.0215,0.0215,0,0,0,0,0,0,0.0117,0.0118,0.013,0.0128,0.013,0.0144,0.0144,0.0147,0.0158,0.0166,0.0169,0.0167,0.018,0.0182,0.0191,0.0199,0.0192,0.0193,0.0214,0.0214,0.0215,0.0218,0,0,0,0,0,0,0.0117,0.0118,0.0116,0.0127,0.013,0.0136,0.0144,0.0147,0.0158,0.016,0.0173,0.0175,0.018,0.019,0.0191,0.0199,0.0193,0.0214,0.0214,0.0215,0.0218,0.0218,0.0219,0,0,0,0,0,0.0116,0.0111,0.0115,0.0116,0.0127,0.0136,0.0139,0.0151,0.0158,0.0162,0.0172,0.0175,0.0195,0.0191,0.0192,0.0201,0.0213,0.0214,0.0215,0.0217,0.0218,0.0219,0,0,0,0,0,0,0.0105,0.0113,0.0118,0.0116,0.0127,0.014,0.0142,0.0153,0.0164,0.0167,0.0176,0.0179,0.0192,0.0194,0.0189,0.0209,0.0206,0.0207,0.0207,0.0208,0.0209,0.0214,0.0193,0,0,0,0,0,0.0101,0.0099,0.0112,0.011,0.0115,0.013,0.0135,0.0146,0.0157,0.0163,0.0175,0.0186,0.0194,0.0199,0.0208,0.0214,0.0221,0.0222,0.0223,0.0223,0.0229,0.0238,0.0241,0.0217,0.0217,0.0217,0,0,0.0095,0.0099,0.0098,0.0108,0.0116,0.0125,0.0134,0.0144,0.0155,0.0163,0.018,0.019,0.0197,0.0208,0.0214,0.0211,0.0235,0.0224,0.0225,0.023,0.0239,0.0242,0.0244,0.0217,0.0217,0.0217,0,0,0.0084,0.0087,0.0086,0.0095,0.0109,0.0121,0.0125,0.0145,0.0156,0.0172,0.0182,0.0196,0.021,0.0218,0.0222,0.0231,0.024,0.0236,0.0244,0.0253,0.0255,0.0257,0.0272,0.0275,0.0235,0.0235,0.0235,0,0.0077,0.0079,0.0087,0.0092,0.0101,0.012,0.0128,0.014,0.0163,0.0175,0.0179,0.0209,0.0214,0.0228,0.0234,0.0234,0.0243,0.0238,0.0254,0.0256,0.0258,0.0273,0.0276,0.0236,0.0236,0.0236,0.0235,0,0.0071,0.0074,0.0074,0.0088,0.0098,0.0107,0.0128,0.0145,0.0164,0.0181,0.0205,0.0214,0.0234,0.0237,0.0239,0.0257,0.0261,0.0254,0.025,0.026,0.0276,0.0279,0.0236,0.0236,0.0236,0.0236,0,0,0.0051,0.0067,0.0067,0.0075,0.0099,0.0108,0.0128,0.0154,0.0173,0.0195,0.022,0.0233,0.0248,0.0254,0.026,0.0267,0.0288,0.0269,0.0269,0.0283,0.0316,0.0346,0.0352,0.0284,0.0284,0.0285,0.0323,0,0.0046,0.0052,0.0065,0.0077,0.0086,0.0112,0.0129,0.0156,0.0182,0.0212,0.0228,0.0251,0.0251,0.0264,0.0272,0.0287,0.0297,0.0279,0.0306,0.0307,0.0331,0.0358,0.0287,0.0326,0.0326,0.0327,0.0328,0,0.0038,0.0045,0.0052,0.0078,0.0085,0.0096,0.0134,0.0154,0.0197,0.0218,0.0247,0.0268,0.0292,0.0285,0.0315,0.0306,0.0314,0.032,0.0322,0.0352,0.0343,0.0313,0.0334,0.0333,0.0333,0.0333,0.0332,0,0.0021,0.0038,0.0044,0.0051,0.0081,0.0092,0.0114,0.0156,0.0177,0.0225,0.0252,0.0282,0.0308,0.0318,0.0354,0.0331,0.0393,0.0357,0.0391,0.0393,0.0352,0.0349,0.0376,0.0376,0.0376,0.0375,0.0375,0,0.001,0.0016,0.0034,0.0036,0.0049,0.0079,0.0101,0.0132,0.0177,0.0209,0.0253,0.0289,0.0319,0.0365,0.0371,0.0414,0.0408,0.0406,0.041,0.0353,0.035,0.0354,0.0352,0.0377,0.0377,0.0376,0.0376,0,-0.0011,0.0001,0.0006,0.0029,0.0037,0.0047,0.0085,0.0105,0.0156,0.0202,0.022,0.03,0.0367,0.041,0.0447,0.0447,0.0472,0.0487,0.045,0.0449,0.0455,0.0452,0.0505,0.0507,0.0508,0.0509,0.051,0,-0.0019,-0.0024,-0.0011,-0.001,-0.0002,0.0017,0.0032,0.0082,0.011,0.0209,0.0233,0.0327,0.0379,0.0468,0.0503,0.0541,0.0534,0.0542,0.0471,0.0473,0.047,0.0465,0.046,0.0512,0.0512,0.0513,0.0513,0,-0.0044,-0.0045,-0.0043,-0.0037,-0.003,-0.0014,0.0017,0.004,0.0113,0.015,0.0252,0.0324,0.0416,0.0477,0.054,0.0552,0.053,0.0554,0.0549,0.0482,0.0481,0.0476,0.047,0.0517,0.0517,0.0516,0.0516,0,-0.0067,-0.0072,-0.007,-0.006,-0.0053,-0.0027,-0.001,0.0044,0.0086,0.0196,0.0228,0.0342,0.0407,0.0486,0.0533,0.0573,0.0542,0.0507,0.0504,0.05,0.0486,0.0483,0.0535,0,0,0,0,0,-0.009,-0.0088,-0.0087,-0.0068,-0.0057,-0.0041,-0.0008,0.0017,0.0083,0.0146,0.0192,0.0281,0.0392,0.0452,0.0492,0.0527,0.0539,0.0571,0.0493,0.0541,0.0536,0.0524,0,0,0,0,0,0,-0.0104,-0.0107,-0.0093,-0.0071,-0.0052,-0.0029,-0.0004,0.004,0.0084,0.0151,0.0214,0.0263,0.0372,0.0369,0.0486,0.0503,0.045,0.0631,0.0631,0.0544,0.0539,0.0535,0.0521,0,0,0,0,0]},{"header":{"parameterUnit":"m.s-1","parameterCategory":2,"la1":30.2991,"la2":30.254,"lo1":-89.0895,"lo2":-89.0444,"dy":0.0017,"dx":0.0017,"nx":28,"ny":28,"refTime":"2025-07-13T09:00:00:Z","depth":"4","parameterNumber":3,"parameterNumberName":"V-component_of_CURRENTS"},"data":[0,0,0,0,0,0,0,0,0,0,0,0,0,0,0,0,0,0,0,0,0,0,0,0,0,0,0,0,0,0,0,0,0,0,0,0,0,0,0,0,0,0,0,0,0,0,0,0,0,0,0,0,0,0,0,0,0,0,-0.0258,-0.0258,0,-0.028,-0.0281,-0.0281,-0.0328,-0.0329,-0.033,-0.0331,-0.0402,-0.0403,-0.0404,0,0,0,0,0,0,0,0,0,0,0,0,0,-0.0276,-0.0275,-0.0258,-0.0258,-0.0258,-0.028,-0.0281,-0.0281,-0.0328,-0.0329,-0.033,-0.0331,-0.0401,-0.0402,-0.0404,0,0,0,0,0,0,0,0,0,0,0,0,0,-0.0281,-0.0275,-0.0258,-0.0284,-0.0286,-0.028,-0.0281,-0.0281,-0.0328,-0.0329,-0.033,-0.0331,-0.0401,-0.0402,-0.0404,-0.0388,0,0,-0.0409,-0.041,0,0,0,0,0,0,0,0,-0.028,-0.028,-0.028,-0.0282,-0.0285,-0.0302,-0.0313,-0.0319,-0.0327,-0.0313,-0.0331,-0.0332,-0.0371,-0.0375,-0.0377,-0.0392,-0.0395,-0.0409,-0.041,-0.0411,-0.0411,0,0,0,0,0,0,0,-0.028,-0.028,-0.0268,-0.028,-0.0283,-0.0301,-0.0303,-0.0314,-0.0336,-0.0314,-0.0318,-0.0318,-0.0373,-0.0376,-0.0379,-0.0396,-0.0409,-0.0411,-0.0412,-0.0412,-0.0485,-0.0486,0,0,0,0,0,0,-0.0272,-0.0279,-0.0267,-0.0268,-0.0284,-0.0299,-0.0302,-0.0296,-0.0335,-0.0342,-0.0317,-0.032,-0.0372,-0.0377,-0.0382,-0.0439,-0.0411,-0.0412,-0.0413,-0.0484,-0.0485,-0.0487,0,0,0,0,0,0,-0.0273,-0.0271,-0.0266,-0.0274,-0.0275,-0.0297,-0.0291,-0.0296,-0.0321,-0.0336,-0.0344,-0.034,-0.0373,-0.038,-0.0414,-0.044,-0.0413,-0.0415,-0.0483,-0.0485,-0.0486,-0.0507,0,0,0,0,0,0,-0.0273,-0.0271,-0.0274,-0.0273,-0.0274,-0.0277,-0.0289,-0.0295,-0.0317,-0.0322,-0.0358,-0.0365,-0.0375,-0.0412,-0.0416,-0.0442,-0.0416,-0.0482,-0.0484,-0.0486,-0.0505,-0.0508,-0.0512,0,0,0,0,0,-0.0273,-0.0273,-0.0273,-0.0273,-0.0274,-0.0278,-0.028,-0.0301,-0.0317,-0.0329,-0.0357,-0.0365,-0.0427,-0.0413,-0.0418,-0.0445,-0.0481,-0.0483,-0.0485,-0.0503,-0.0508,-0.0512,0,0,0,0,0,0,-0.0289,-0.0278,-0.0278,-0.0277,-0.0282,-0.0286,-0.0299,-0.031,-0.0339,-0.0353,-0.0371,-0.0379,-0.0421,-0.0427,-0.0412,-0.0472,-0.0457,-0.046,-0.0469,-0.0474,-0.0477,-0.048,-0.0417,0,0,0,0,0,-0.0289,-0.0286,-0.028,-0.0282,-0.0284,-0.0293,-0.0302,-0.0315,-0.0333,-0.0348,-0.0372,-0.0401,-0.0428,-0.0447,-0.0468,-0.0494,-0.0494,-0.0517,-0.052,-0.0523,-0.0529,-0.0545,-0.055,-0.0494,-0.0494,-0.0494,0,0,-0.0297,-0.029,-0.029,-0.0285,-0.0291,-0.0301,-0.0303,-0.032,-0.034,-0.035,-0.0394,-0.0414,-0.0438,-0.0473,-0.0493,-0.0485,-0.0539,-0.0526,-0.0528,-0.0533,-0.0548,-0.0553,-0.0558,-0.0495,-0.0495,-0.0495,0,0,-0.031,-0.0303,-0.0307,-0.0309,-0.0317,-0.032,-0.0328,-0.0341,-0.0362,-0.0391,-0.0412,-0.0448,-0.0482,-0.0508,-0.0524,-0.0558,-0.0557,-0.0569,-0.059,-0.0605,-0.061,-0.0614,-0.0616,-0.062,-0.0571,-0.0571,-0.0571,0,-0.0327,-0.032,-0.0312,-0.0319,-0.0324,-0.0331,-0.0344,-0.0361,-0.0388,-0.0403,-0.0413,-0.0474,-0.05,-0.0543,-0.0564,-0.0568,-0.0569,-0.057,-0.0609,-0.0613,-0.0617,-0.0618,-0.0622,-0.0572,-0.0572,-0.0572,-0.0572,0,-0.034,-0.034,-0.0345,-0.0351,-0.0358,-0.0369,-0.0381,-0.0402,-0.0423,-0.0437,-0.0484,-0.0515,-0.0553,-0.0569,-0.0582,-0.0627,-0.0615,-0.061,-0.0596,-0.0624,-0.0623,-0.0627,-0.0574,-0.0573,-0.0573,-0.0573,0,0,-0.0367,-0.0355,-0.036,-0.0357,-0.0374,-0.0376,-0.041,-0.043,-0.0446,-0.0485,-0.0509,-0.0572,-0.0588,-0.0608,-0.0629,-0.0649,-0.0683,-0.0647,-0.0647,-0.0644,-0.0707,-0.0631,-0.0628,-0.0682,-0.0683,-0.0684,-0.0694,0,-0.0386,-0.0385,-0.0384,-0.0397,-0.0395,-0.0407,-0.043,-0.0454,-0.0474,-0.0498,-0.0538,-0.0574,-0.0603,-0.0624,-0.0654,-0.0674,-0.0696,-0.068,-0.0685,-0.0685,-0.061,-0.0631,-0.0687,-0.0697,-0.0698,-0.0698,-0.0699,0,-0.0406,-0.0396,-0.0403,-0.0394,-0.0397,-0.0417,-0.0437,-0.046,-0.0495,-0.0513,-0.0557,-0.0578,-0.0636,-0.0644,-0.0704,-0.0691,-0.0711,-0.072,-0.072,-0.0645,-0.0617,-0.0665,-0.0706,-0.0705,-0.0705,-0.0704,-0.0704,0,-0.0413,-0.0411,-0.041,-0.0411,-0.0411,-0.0428,-0.0442,-0.0472,-0.0477,-0.053,-0.053,-0.0598,-0.0621,-0.0668,-0.0697,-0.0709,-0.073,-0.0744,-0.0692,-0.0687,-0.0742,-0.0738,-0.0782,-0.0782,-0.0782,-0.0782,-0.0782,0,-0.0423,-0.0423,-0.0413,-0.0412,-0.0414,-0.0428,-0.044,-0.0466,-0.0486,-0.048,-0.0544,-0.0537,-0.0627,-0.0641,-0.0687,-0.0689,-0.0727,-0.0699,-0.0686,-0.075,-0.0747,-0.0745,-0.074,-0.0783,-0.0783,-0.0783,-0.0783,0,-0.0427,-0.0425,-0.0415,-0.0413,-0.0416,-0.0422,-0.0425,-0.0424,-0.0457,-0.045,-0.0466,-0.0497,-0.052,-0.0575,-0.063,-0.0653,-0.0675,-0.0664,-0.0711,-0.0701,-0.0631,-0.0627,-0.063,-0.0627,-0.0625,-0.0623,-0.0622,0,-0.0421,-0.0418,-0.0408,-0.0401,-0.0404,-0.0407,-0.0403,-0.0422,-0.0411,-0.0405,-0.0391,-0.0407,-0.043,-0.0444,-0.0517,-0.0584,-0.059,-0.0612,-0.0652,-0.0628,-0.0617,-0.0617,-0.0616,-0.0619,-0.0618,-0.0617,-0.0617,0,-0.0403,-0.0409,-0.0395,-0.0385,-0.0381,-0.0362,-0.0358,-0.034,-0.0347,-0.0352,-0.0312,-0.033,-0.0333,-0.0391,-0.0431,-0.0483,-0.0611,-0.059,-0.0596,-0.0635,-0.0615,-0.0605,-0.0607,-0.0609,-0.061,-0.0611,-0.0612,0,-0.0387,-0.0376,-0.037,-0.0361,-0.0352,-0.0339,-0.0329,-0.0299,-0.0287,-0.0275,-0.0246,-0.027,-0.0289,-0.0333,-0.0367,-0.0411,-0.0441,-0.0478,-0.0491,-0.05,-0.0458,-0.0413,-0.0336,0,0,0,0,0,-0.0369,-0.0362,-0.0344,-0.0337,-0.033,-0.0337,-0.0306,-0.0293,-0.0276,-0.0234,-0.0243,-0.0239,-0.0273,-0.0287,-0.0318,-0.0354,-0.0469,-0.0392,-0.0523,-0.0568,-0.0577,-0.0543,0,0,0,0,0,0,-0.0357,-0.0346,-0.0339,-0.0329,-0.033,-0.0323,-0.031,-0.0293,-0.0265,-0.0244,-0.0255,-0.025,-0.0285,-0.0261,-0.0322,-0.0333,-0.0419,-0.0409,-0.0409,-0.0563,-0.0571,-0.0578,-0.0546,0,0,0,0,0]}]]